Regional Weather Roundup
Issued by NWS Goodland, KS

Home | Current Version | Previous Version | Graphics & Text | Print | Product List | Glossary On
Versions: 1 2 3 4 5 6 7 8 9 10 11 12 13 14 15 16 17 18 19 20 21 22 23 24 25 26 27 28 29 30 31 32 33 34 35 36 37 38 39 40 41 42 43 44 45 46 47 48 49 50
000
ASUS43 KGLD 270808
RWRGLD

GOODLAND FORECAST AREA HOURLY WEATHER ROUNDUP
NATIONAL WEATHER SERVICE GOODLAND KS
200 AM MDT FRI MAR 27 2015

...OFFICIAL OBSERVATIONS...

CITY           SKY/WX    TMP DP  RH WIND       PRES   REMARKS
GOODLAND KS    CLOUDY    37  30  75 E7        30.19R
HILL CITY KS   CLOUDY    36  30  79 NE7       30.23S
IMPERIAL NEB   FLURRIES  36  28  73 E6        30.22R
MCCOOK NEB     CLOUDY    35  28  75 E6        30.24R
AKRON CO       CLOUDY    39  33  79 S6        30.15F
BURLINGTON CO  MOCLDY    38  30  73 E5        30.17S
LIMON CO       CLOUDY    41  30  65 S7        30.18F
$$

...UNOFFICIAL OBSERVATIONS...

CITY           SKY/WX    TMP DP  RH WIND       PRES   REMARKS
COLBY KS       CLOUDY    34  32  93 CALM      30.22R
GOVE KS          N/A     36  32  85 MISG        N/A
LENORA KS        N/A     33  32  96 MISG        N/A
NORTON KS      CLOUDY    34  27  75 NE8       30.23R
SHARON SPRINGS   N/A     40  31  71 CALM        N/A
TRIBUNE KS     CLOUDY    43  37  81 NE3       30.19S
KIT CARSON CO    N/A     43  35  72 MISG        N/A
YUMA CO          N/A     38  30  72 CALM        N/A
$$



USA.gov is the U.S. government's official web portal to all federal, state and local government web resources and services.